EHI
0 4 11 11 5 2 1 2 8 20 33 41 44 43 31 16 6 1 0 0 0 0 0 0 0 0 0 0 0 0 0 0 0 0 0 0 0 0 0 0 0 0 0
0 4 11 13 11 5 1 1 6 14 23 29 31 29 22 12 4 1 0 0 0 0 0 0 0 0 0 0 0 0 0 0 0 0 0 0 0 0 0 0 0 0 0
2 4 10 18 21 14 5 2 4 8 13 15 15 13 9 5 2 1 0 0 0 0 0 0 0 0 0 0 0 0 0 0 0 0 0 0 0 0 0 0 0 0 0
3 4 13 28 36 28 13 5 3 5 7 7 6 5 3 1 1 0 0 0 0 0 0 0 0 0 0 0 0 0 0 0 0 0 0 0 0 0 0 0 0 0 0
6 5 20 44 54 44 25 9 3 3 3 2 2 1 1 0 0 0 0 0 0 0 0 0 0 0 0 0 0 0 0 0 0 0 0 0 0 0 0 0 0 0 0
10 10 28 59 70 58 37 17 6 2 1 1 0 0 0 0 0 0 0 0 0 0 0 0 0 0 0 0 0 0 0 0 0 0 0 0 0 0 0 0 0 0 0
22 22 40 71 83 71 50 29 13 5 2 2 1 0 0 0 0 0 0 0 0 0 0 0 0 0 0 0 0 0 0 0 0 0 0 0 0 0 0 0 0 0 0
39 41 55 77 87 82 65 43 25 13 7 4 2 1 0 0 0 0 0 0 0 0 0 0 0 0 0 0 0 0 0 0 0 0 0 0 0 0 0 0 0 0 0
50 55 63 72 80 81 71 52 35 23 14 8 4 1 0 0 0 0 0 0 0 0 0 0 0 0 0 0 0 0 0 0 0 0 0 0 0 0 0 0 0 0 0
51 56 62 65 69 71 64 51 38 28 18 10 5 2 0 0 0 0 0 0 0 0 0 0 0 0 0 0 0 0 0 0 0 0 0 0 0 0 0 0 0 0 0
44 48 53 58 62 61 54 43 35 26 17 10 6 2 0 0 0 0 0 0 0 0 0 0 0 0 0 0 0 0 0 0 0 0 0 0 0 0 0 0 0 0 0
31 36 41 47 53 54 48 39 32 26 18 13 8 4 2 1 1 1 1 0 0 0 0 0 0 0 0 1 1 1 0 0 0 0 0 0 0 0 0 0 0 0 0
25 29 34 39 43 44 42 36 32 30 25 19 13 9 6 4 3 2 2 1 0 0 0 0 0 0 0 1 2 1 0 0 0 0 0 0 0 0 0 0 1 1 0
28 27 30 35 37 36 34 31 31 31 29 24 19 16 12 8 4 3 3 1 0 0 1 1 0 0 0 1 1 1 0 0 0 0 0 0 0 0 0 0 1 1 1
31 26 25 28 30 29 25 22 23 25 25 24 23 22 17 11 5 3 3 2 1 0 1 1 1 0 0 0 0 1 0 0 0 1 0 0 0 0 1 1 1 1 0
28 23 17 16 17 17 14 12 13 16 19 22 22 19 15 10 5 3 3 2 1 0 0 1 1 0 0 0 0 0 0 0 0 0 0 0 0 0 1 1 0 0 0
16 13 8 7 6 5 4 5 8 10 14 17 17 12 9 7 5 2 1 1 1 0 0 0 0 0 0 0 0 0 0 0 0 0 0 0 0 0 1 1 0 0 0
5 4 3 2 2 2 2 4 7 9 10 12 11 8 6 6 4 2 0 0 0 1 1 1 0 0 0 0 0 0 0 0 0 0 0 0 0 0 0 0 0 0 0
2 2 1 1 2 3 4 4 4 6 7 6 7 7 6 6 5 2 0 0 0 1 2 1 0 0 0 0 0 0 0 0 0 0 0 0 0 0 0 0 0 0 0
1 1 0 1 2 3 3 2 1 2 3 3 4 6 6 6 5 2 0 0 0 1 1 1 0 0 0 0 0 0 0 0 0 0 0 0 0 0 0 0 0 0 1
0 0 0 0 1 1 1 0 0 0 1 2 4 5 4 3 3 1 0 0 0 0 0 0 0 0 0 0 0 0 0 0 0 0 0 0 0 0 0 0 0 0 1
0 0 0 0 0 0 0 0 0 0 1 2 2 2 1 1 1 0 0 0 0 0 0 0 0 0 0 0 0 0 0 0 0 0 0 0 0 0 0 0 0 0 1
0 0 0 0 0 0 0 0 0 0 0 1 1 1 0 0 0 0 0 0 0 0 0 0 0 0 0 0 0 0 0 0 0 0 0 0 0 0 0 0 0 0 0
0 0 0 0 0 0 0 0 0 0 0 0 0 0 0 0 0 0 0 0 0 0 0 0 0 0 0 0 0 0 0 0 0 0 0 0 0 0 0 0 0 0 0
0 0 0 0 0 0 0 0 0 0 0 0 0 0 0 0 0 0 0 0 0 0 0 0 0 0 0 0 0 0 0 0 0 0 0 0 0 0 0 0 0 0 0
0 0 0 0 0 0 0 0 0 0 0 0 0 0 0 0 0 0 0 0 0 0 0 0 0 0 0 0 0 0 0 0 0 0 0 0 0 0 0 0 0 0 0
Wind_Speed
9 10 18 18 17 16 16 15 15 15 16 16 16 17 17 16 16 15 14 13 12 12 11 10 10 10 10 11 11 12 12 12 13 13 13 13 13 13 13 13 13 10 14
13 13 19 18 18 17 16 16 15 16 16 15 16 16 16 16 16 15 14 13 13 12 11 10 10 10 10 10 11 11 11 12 12 12 13 12 12 12 12 12 12 9 14
14 13 15 18 18 17 16 16 15 15 15 15 15 15 15 15 15 15 14 13 12 12 11 11 10 10 10 10 10 10 11 11 11 11 10 6 8 11 12 12 12 12 13
13 11 11 18 18 18 17 16 15 15 15 14 14 14 14 14 14 14 13 12 11 11 10 10 10 10 10 9 9 9 9 10 10 10 5 4 4 10 12 12 12 12 12
11 9 12 20 19 19 17 16 15 15 14 14 14 13 13 14 13 13 12 11 10 10 10 9 9 9 9 8 8 8 8 8 8 7 4 3 1 8 12 12 12 13 13
11 9 11 20 20 19 18 17 16 15 14 14 13 13 13 13 12 12 11 10 10 9 9 9 8 8 8 8 7 7 7 7 6 3 2 2 2 7 11 12 13 13 13
11 8 10 19 19 19 18 17 16 15 15 14 13 13 13 12 12 11 11 10 9 9 9 9 8 8 8 8 8 7 7 7 3 2 2 3 4 8 11 12 13 13 13
12 9 8 18 19 18 17 17 16 15 15 14 13 13 13 12 12 11 11 10 10 10 10 10 9 9 9 9 9 8 8 7 5 4 4 4 6 10 13 14 14 14 14
9 8 6 9 12 16 16 16 15 15 14 14 14 14 13 13 12 12 12 12 12 11 11 11 11 11 10 10 10 9 9 9 5 3 4 4 6 9 13 15 15 16 16
6 6 5 5 6 6 8 14 14 14 14 14 14 14 14 14 13 14 12 12 13 13 13 13 12 12 12 11 11 11 10 9 6 5 4 5 8 10 12 15 16 16 17
7 5 4 4 4 4 3 7 10 12 13 13 12 15 14 7 7 8 11 14 15 15 14 14 14 14 13 12 13 13 11 5 6 5 5 9 11 12 13 14 15 17 17
8 7 4 4 3 3 3 2 2 3 4 6 5 6 5 4 5 9 9 16 17 16 16 16 16 15 12 6 9 11 5 7 6 6 6 12 13 14 14 14 14 16 17
6 6 4 3 3 2 1 0 1 2 2 4 5 6 4 4 4 6 4 7 9 12 9 10 11 7 7 6 6 6 6 6 5 5 7 13 14 15 14 14 14 16 17
7 7 5 5 3 2 1 1 2 3 3 4 6 6 5 4 5 6 5 5 5 5 6 6 5 7 8 8 8 8 8 6 5 5 7 14 14 15 15 15 14 15 16
7 6 6 6 4 2 2 3 4 5 6 6 6 6 8 7 7 7 6 6 7 6 6 6 6 7 8 8 8 9 8 8 8 7 5 12 13 13 14 15 14 14 15
7 6 5 4 3 3 2 4 5 5 6 6 7 8 9 8 8 7 7 7 7 7 6 6 6 5 5 5 6 7 7 7 6 6 6 8 13 12 12 13 13 13 13
5 4 3 2 2 3 5 7 7 6 6 6 6 7 8 8 9 8 7 7 6 6 6 4 4 3 3 3 5 5 5 5 6 7 7 6 6 10 12 12 12 12 13
5 3 1 1 2 4 5 7 7 7 6 5 4 5 7 9 11 9 7 7 5 4 4 3 3 3 3 3 3 4 4 4 6 7 6 6 6 6 8 12 12 13 14
4 3 3 4 5 5 5 6 7 5 5 3 3 4 6 9 11 9 7 5 4 4 4 4 3 3 3 3 3 3 3 4 5 6 7 7 7 7 6 8 12 13 15
5 4 4 4 5 5 4 4 4 3 2 3 3 3 7 7 9 7 5 5 5 4 3 3 3 2 2 2 2 2 3 4 4 5 6 5 5 7 7 7 7 8 13
6 5 5 6 6 5 3 3 4 3 2 2 2 4 7 7 7 6 4 5 5 5 5 5 3 3 2 2 1 1 2 2 3 3 3 3 4 4 5 6 5 5 5
5 5 5 6 6 6 4 3 2 3 2 1 2 3 5 5 5 5 6 5 5 4 4 5 4 3 2 3 3 1 2 2 1 1 1 1 2 1 2 4 5 6 6
5 5 4 4 5 5 5 3 3 3 3 4 4 3 4 4 3 4 6 5 6 5 6 6 5 6 4 3 2 3 3 3 2 2 1 1 1 2 2 3 5 6 6
4 3 3 4 4 4 4 4 5 3 3 3 3 3 5 5 3 2 3 5 5 5 5 6 6 4 5 3 2 2 2 3 2 1 2 2 2 3 4 4 4 5 5
4 4 3 3 3 3 3 3 3 2 1 2 2 4 5 5 5 5 3 2 4 4 6 6 6 6 5 4 4 3 2 1 2 2 2 3 3 3 3 4 4 4 4
6 5 4 3 3 3 2 1 1 1 1 2 3 3 3 3 3 5 4 3 3 3 5 6 6 8 6 5 4 4 4 3 3 4 4 3 3 3 3 3 3 3 3
Wind_Direction
167 164 172 164 157 151 148 146 144 141 139 139 140 143 146 148 151 154 156 157 158 157 153 145 138 132 130 129 127 126 126 127 130 132 133 130 126 122 120 118 118 119 120
154 160 170 165 159 154 151 149 148 146 144 144 146 149 151 153 155 157 158 159 160 159 155 150 146 142 139 137 135 134 134 136 138 140 140 138 135 132 128 125 125 127 126
147 157 166 164 160 157 154 153 152 150 149 150 151 153 156 158 160 161 161 161 161 160 158 157 154 150 147 145 143 143 143 145 146 146 135 126 138 144 140 139 136 131 130
145 154 161 164 162 160 158 157 156 155 155 155 157 159 161 164 165 165 164 164 164 163 163 162 161 158 154 152 151 151 151 152 152 145 127 135 147 154 152 150 147 142 138
145 153 165 165 165 163 162 161 161 161 162 163 164 166 168 170 172 172 171 171 171 170 169 169 168 164 161 160 159 160 161 160 161 144 141 152 147 161 161 160 159 154 149
149 154 169 166 167 167 167 167 167 168 169 171 173 175 177 178 180 181 181 181 181 180 179 178 177 172 171 171 172 174 176 179 166 129 156 177 191 184 176 174 171 167 162
151 156 171 168 170 170 171 173 173 174 177 180 182 184 185 187 189 190 191 192 192 191 191 190 189 185 186 186 188 190 195 202 166 170 203 215 218 216 201 189 183 179 174
153 154 167 171 173 174 176 178 180 181 183 187 191 193 194 196 198 199 200 202 203 203 203 202 202 201 201 202 203 205 209 217 212 205 219 228 230 226 215 203 195 189 185
148 151 162 167 173 177 180 183 186 188 191 194 198 200 203 204 206 208 209 212 214 214 215 216 216 216 216 217 218 219 221 225 219 209 226 224 234 230 221 210 203 198 193
137 145 147 149 155 166 179 189 192 196 200 204 206 207 209 212 213 216 216 221 223 224 225 226 227 228 227 228 230 231 233 237 233 225 232 237 241 237 229 219 211 205 200
150 145 133 131 133 139 161 197 200 206 209 212 215 217 216 218 221 224 226 227 231 232 233 234 235 235 235 235 236 237 239 230 231 234 233 241 244 243 237 229 219 212 207
164 163 142 129 116 115 177 202 220 222 221 217 214 223 220 210 219 228 236 235 237 239 240 239 239 239 240 235 239 241 234 230 232 237 237 242 244 243 241 236 227 218 212
147 154 143 131 109 109 123 332 241 230 229 226 220 221 224 218 223 232 230 244 246 247 245 245 243 233 228 226 227 227 230 234 234 238 241 246 244 241 241 240 232 225 219
133 143 134 131 125 142 170 238 243 233 227 226 221 218 219 224 226 228 230 231 235 241 243 240 236 228 227 228 228 229 232 233 235 236 240 248 246 243 242 242 237 232 227
126 135 144 143 150 173 210 243 238 235 231 229 224 220 220 227 232 230 231 231 232 233 236 238 233 230 228 228 228 226 231 233 235 236 241 249 251 246 243 244 243 238 233
118 127 129 136 165 179 227 259 258 244 233 226 220 221 224 229 234 232 232 233 233 231 232 231 227 226 224 221 230 228 232 237 237 238 239 249 254 254 250 248 248 243 239
102 110 125 156 202 227 235 241 247 243 237 227 223 223 227 233 238 236 233 235 233 225 224 224 219 206 208 210 226 231 233 238 239 244 245 244 251 255 254 251 250 246 241
62 63 39 339 258 254 260 259 255 249 238 235 227 231 235 238 240 236 231 232 225 211 204 200 194 193 204 205 216 228 229 232 238 242 246 246 247 253 254 254 251 247 242
32 25 2 341 324 299 280 264 258 248 241 242 241 236 245 245 241 230 224 222 201 193 190 189 177 183 194 205 217 228 233 234 241 248 247 248 246 246 248 252 253 250 247
25 16 9 347 337 323 307 297 300 297 252 233 241 246 250 246 236 217 209 202 185 180 180 176 167 170 185 192 217 237 246 247 245 245 250 253 251 250 248 248 249 250 249
35 24 15 5 357 353 341 332 328 317 287 246 240 264 251 237 223 200 193 187 182 183 185 177 161 171 182 160 148 296 299 267 255 245 244 245 253 257 254 250 244 243 247
33 26 22 15 4 357 342 314 295 306 315 352 359 306 276 252 226 204 196 190 186 180 180 179 165 161 177 171 159 157 307 327 319 300 267 230 260 276 276 272 261 250 244
23 16 14 7 3 360 354 343 339 353 356 13 7 345 319 303 259 219 206 195 190 184 189 189 177 169 178 192 187 163 176 223 290 317 313 313 322 302 297 296 280 268 255
358 351 351 351 355 355 7 35 45 35 17 356 337 333 335 342 334 304 239 211 200 196 195 193 184 176 164 179 196 210 194 170 173 299 312 313 309 290 296 299 298 289 270
312 311 307 318 335 342 9 41 61 51 359 319 334 347 349 352 359 3 344 275 227 214 211 199 184 185 180 176 178 175 180 185 178 193 263 304 311 287 284 288 292 293 289
292 290 287 295 301 308 331 18 69 52 349 348 345 343 341 337 344 356 356 340 292 246 224 212 201 194 194 188 186 181 173 171 185 193 224 254 283 288 293 290 293 302 305